TimeEDT,TemperatureF,Dew PointF,Humidity,Sea Level PressureIn,VisibilityMPH,Wind Direction,Wind SpeedMPH,Gust SpeedMPH,PrecipitationIn,Events,Conditions,WindDirDegrees,DateUTC
12:53 AM,34.0,28.0,79,30.45,10.0,South,5.8,-,N/A,,Clear,190,2012-10-13 04:53:00
1:53 AM,34.0,28.9,82,30.47,10.0,SSW,6.9,-,N/A,,Clear,210,2012-10-13 05:53:00
2:53 AM,33.1,28.9,85,30.46,10.0,SSW,5.8,-,N/A,,Clear,210,2012-10-13 06:53:00
3:53 AM,32.0,27.0,82,30.45,10.0,Calm,Calm,-,N/A,,Clear,0,2012-10-13 07:53:00
4:53 AM,30.9,28.0,89,30.46,10.0,SSW,4.6,-,N/A,,Clear,210,2012-10-13 08:53:00
5:53 AM,32.0,27.0,82,30.47,10.0,SSW,5.8,-,N/A,,Clear,210,2012-10-13 09:53:00
6:53 AM,30.9,28.0,89,30.47,10.0,SSW,5.8,-,N/A,,Clear,210,2012-10-13 10:53:00
7:53 AM,32.0,28.0,85,30.48,10.0,SSW,6.9,-,N/A,,Clear,210,2012-10-13 11:53:00
8:53 AM,35.1,28.0,76,30.48,10.0,SSW,9.2,-,N/A,,Clear,200,2012-10-13 12:53:00
9:53 AM,39.9,24.1,53,30.48,10.0,SSW,8.1,-,N/A,,Clear,210,2012-10-13 13:53:00
10:53 AM,45.0,26.1,48,30.45,10.0,SSW,5.8,-,N/A,,Clear,200,2012-10-13 14:53:00
11:53 AM,46.9,19.0,33,30.42,10.0,South,9.2,17.3,N/A,,Clear,190,2012-10-13 15:53:00
12:53 PM,50.0,23.0,35,30.38,10.0,South,13.8,17.3,N/A,,Clear,170,2012-10-13 16:53:00
1:53 PM,50.0,25.0,38,30.35,10.0,SSW,6.9,-,N/A,,Clear,200,2012-10-13 17:53:00
2:53 PM,50.0,25.0,38,30.33,10.0,SSE,5.8,-,N/A,,Partly Cloudy,160,2012-10-13 18:53:00
3:53 PM,50.0,25.0,38,30.28,10.0,SSE,9.2,-,N/A,,Mostly Cloudy,150,2012-10-13 19:53:00
4:53 PM,50.0,27.0,41,30.26,10.0,SSE,4.6,-,N/A,,Overcast,150,2012-10-13 20:53:00
5:53 PM,48.9,28.0,44,30.24,10.0,SSE,8.1,-,N/A,,Mostly Cloudy,150,2012-10-13 21:53:00
6:53 PM,48.9,28.0,44,30.20,10.0,SSE,9.2,-,N/A,,Scattered Clouds,160,2012-10-13 22:53:00
8:53 PM,48.9,30.9,50,30.14,10.0,South,10.4,-,0.00,,Overcast,180,2012-10-14 00:53:00
10:53 PM,46.9,36.0,66,30.08,10.0,South,16.1,23.0,0.01,Rain,Light Rain,180,2012-10-14 02:53:00